Seldovia, AK

3:24 PM AKST on February 25, 2017 (GMT -0900)
Seldovia

Weather History for PASO - January, 2014

Change the Weather History Date:

Monday, January 6, 2014

  Actual Average (PAHO) Record (PAHO)
Temperature  
Mean Temperature 34 °F -  
Max Temperature 37 °F 28 °F 49 °F (1942)
Min Temperature 32 °F 16 °F -8 °F (1949)
Degree Days  
Heating Degree Days 30    
Moisture  
Dew Point 35 °F    
Average Humidity 98    
Maximum Humidity 100    
Minimum Humidity 93    
Precipitation  
Precipitation 0.21 in - - ()
Sea Level Pressure  
Sea Level Pressure 29.64 in    
Wind  
Wind Speed 2 mph (SSE)    
Max Wind Speed 12 mph    
Max Gust Speed 20 mph    
Visibility 10 miles    
Events Rain    
Averages and records for this station are not official NWS values.
T = Trace of Precipitation, MM = Missing Value Source: NWS Daily Summary

Daily Weather History Graph

Daily Weather History Graph

Search for Another Location

Airport or City:

Trip Planner

Search our weather history database for the weather conditions in past years. The results will help you decide how hot, cold, wet, or windy it might be!

Date:

Astronomy

Jan. 06, 2014 Rise Set
Actual Time 10:00 AM AKST 4:25 PM AKST
Civil Twilight 9:06 AM AKST 5:19 PM AKST
Nautical Twilight 8:12 AM AKST 6:13 PM AKST
Astronomical Twilight 7:22 AM AKST 7:03 PM AKST
Moon 11:40 AM AKST (1/6) No Moon Set
Length of Visible Light 8h 12m
Length of Day
6h 25m
Waxing Crescent, 36% of the Moon is Illuminated
Jan 6
Waxing Crescent
Jan 7
First Quarter
Jan 15
Full
Jan 23
Last Quarter
Jan 30
New

Hourly Weather History & Observations

Time (AKST) Temp. Windchill Dew Point Humidity Pressure Visibility Wind Dir Wind Speed Gust Speed Precip Events Conditions
12:37 AM 35.6 °F - 35.6 °F 100% 29.65 in 9.0 mi Calm Calm - 0.01 in Rain Light Rain
12:53 AM 35.1 °F - 35.1 °F 100% 29.65 in 7.0 mi Calm Calm - 0.02 in Rain Light Rain
1:40 AM 35.6 °F - 35.6 °F 100% 29.63 in 7.0 mi Calm Calm - 0.01 in Rain Light Rain
1:53 AM 35.1 °F - 35.1 °F 100% 29.62 in 8.0 mi Calm Calm - 0.01 in Rain Light Rain
3:53 AM 36.0 °F 31.1 °F 35.1 °F 97% 29.62 in 5.0 mi South 5.8 mph - 0.10 in Rain Rain
4:36 AM 35.6 °F 30.7 °F 35.6 °F 100% 29.60 in 10.0 mi SSE 5.8 mph - 0.03 in Rain Light Rain
4:53 AM 36.0 °F 31.1 °F 35.1 °F 97% 29.60 in 10.0 mi South 5.8 mph - 0.03 in   Mostly Cloudy
5:19 AM 37.4 °F 32.1 °F 35.6 °F 93% 29.59 in 10.0 mi Variable 6.9 mph 18.4 mph N/A   Mostly Cloudy
5:53 AM 37.0 °F 29.3 °F 35.1 °F 93% 29.60 in 10.0 mi SSE 11.5 mph 19.6 mph N/A   Mostly Cloudy
6:53 AM 36.0 °F 33.3 °F 35.1 °F 97% 29.58 in 10.0 mi Variable 3.5 mph - 0.00 in Rain Light Rain
7:51 AM 35.6 °F 32.8 °F 35.6 °F 100% 29.59 in 10.0 mi Variable 3.5 mph - 0.01 in Rain Light Rain
7:53 AM 36.0 °F - 36.0 °F 100% 29.60 in 10.0 mi Calm Calm - 0.01 in   Mostly Cloudy
8:51 AM 37.4 °F 34.9 °F 37.4 °F 100% 29.62 in 10.0 mi Variable 3.5 mph - 0.00 in Rain Light Rain
8:53 AM 37.9 °F - 37.0 °F 97% 29.63 in 10.0 mi Calm Calm - 0.00 in   Overcast
9:21 AM 37.4 °F - 35.6 °F 93% 29.64 in 8.0 mi Calm Calm - 0.00 in Rain Light Rain
9:53 AM 36.0 °F - 36.0 °F 100% 29.65 in 10.0 mi Calm Calm - 0.01 in Rain Light Rain
10:53 AM 35.1 °F - 35.1 °F 100% 29.67 in 10.0 mi Calm Calm - 0.00 in Rain Light Rain
11:53 AM 35.1 °F - 35.1 °F 100% 29.67 in 10.0 mi Calm Calm - 0.02 in Rain Light Rain
12:53 PM 36.0 °F - 36.0 °F 100% 29.67 in 9.0 mi Calm Calm - 0.01 in Rain Light Rain
1:39 PM 35.6 °F - 35.6 °F 100% 29.67 in 10.0 mi Calm Calm - 0.00 in   Overcast
1:53 PM 36.0 °F - 35.1 °F 97% 29.67 in 10.0 mi Calm Calm - 0.00 in   Mostly Cloudy
2:53 PM 37.0 °F 32.4 °F 35.1 °F 93% 29.66 in 10.0 mi South 5.8 mph - N/A   Mostly Cloudy
3:53 PM 35.1 °F - 35.1 °F 100% 29.67 in 10.0 mi Calm Calm - N/A   Mostly Cloudy
4:53 PM 34.0 °F - 33.1 °F 96% 29.67 in 10.0 mi Calm Calm - N/A   Overcast
5:51 PM 33.8 °F - 32.0 °F 93% 29.65 in 10.0 mi Calm Calm - N/A   Mostly Cloudy
5:53 PM 32.0 °F - 32.0 °F 100% 29.66 in 10.0 mi Calm Calm - N/A   Mostly Cloudy
6:53 PM 32.0 °F - 32.0 °F 100% 29.65 in 10.0 mi Calm Calm - N/A   Clear
7:53 PM 33.1 °F 28.7 °F 32.0 °F 96% 29.65 in 10.0 mi Variable 4.6 mph - N/A   Partly Cloudy
8:53 PM 32.0 °F - 32.0 °F 100% 29.65 in 10.0 mi Calm Calm - N/A   Scattered Clouds
9:53 PM 36.0 °F - 34.0 °F 93% 29.64 in 10.0 mi Calm Calm - N/A   Mostly Cloudy
10:53 PM 33.1 °F - 33.1 °F 100% 29.63 in 10.0 mi Calm Calm - 0.00 in   Mostly Cloudy
11:53 PM 33.1 °F - 33.1 °F 100% 29.62 in 10.0 mi Calm Calm - N/A   Scattered Clouds